Погода в Лериде

Испания     41°37′11″N   0°37′41″E
темп.,
°C
ветер,
м/с
пор.,
м/с
влажн.,
%
обл.,
%
осадки,
мм/ч
давл.,
гПа
погр.,
м
19 апреля, пн
пн1923:00+10ю45481 0.0 101968
02:00+8вюв22650 0.0 101920
05:00+6в12745 0.0 101815
08:00+6всв118162 0.0 101925
11:00+12с21628 0.0 1018607
14:00+17зсз223754 0.0 10161407
17:00+18з332998 0.0 10141618
20:00+16юв113595 0.0 101414
20 апреля, вт
вт2023:00+10ююв2376100 0.0 101664
02:00+10вюв1185100 0.0 101617
05:00+10вюв2281100 0.0 101544
08:00+10ссв1180100 0.0 101673
11:00+14св326297 0.0 1016570
14:00+15св225455 0.0 1014609
17:00+18ссв0243100 0.0 10121926
20:00+15ююв4554100 0.0 1012254
21 апреля, ср
ср2123:00+12ююз126297 0.0 101492
02:00+12св2366100 0.0 1014117
05:00+11всв1270100 0.0 101332
08:00+11в0176100 0.2 101341
11:00+13ссв116994 0.0 1014402
14:00+15св115819 0.2 1013927
17:00+18ююв225296 0.6 10111446
20:00+14юв467073 0.9 1012340
22 апреля, чт
чт2223:00+10вюв3487100 0.0 101496
02:00+11всв3587100 0.0 1014170
05:00+11в4783100 0.0 1012376
08:00+10всв41094100 4.1 1013529
11:00+11всв51088100 4.6 1014726
14:00+10всв61191100 9.4 1014710
17:00+11всв5987100 1.3 1014617
20:00+10всв2388100 1.4 1015143
23 апреля, пт
пт2323:00+10юв1188100 0.3 101715
02:00+10юз1190100 0.4 101712
05:00+10ююз0092100 0.0 101610
08:00+10вюв118997 0.0 101744
11:00+14з11689 0.0 1017708
14:00+18юз235292 0.2 10171609
17:00+17юв235676 0.1 1016322
20:00+16ююв235994 0.1 101666